Location: Arthez
(43.0833°N, 0.2500°W)
Time: 22:24:05
(UTC+00:00)

deb Kosmos-970 - Pass Details

Date: 24 August 2022
Orbit: 900 x 1112 km, 65.8° (Epoch: 28 September)

Event Time Altitude Azimuth Distance (km) Brightness Sun altitude
Rises 23:57:47 0° 321° (NW) 3,929 ? -35.7°
Reaches altitude 10° 00:00:39 10° 315° (NW) 2,951 ? -35.7°
Enters shadow 00:04:37 30° 289° (WNW) 1,825 ? -35.7°
